Terug naar catalogus

STARLINK-35894

ActiefCommunicatieVLEO
NORAD 66500·PAYLOAD·🇺🇸 United States

Gelanceerd Nov 15, 2025 vanaf Cape Canaveral Space Force Station

Loading…

Volgende Passages (komende 24 uur)

TLE

VersSource: CelesTrak SupGP

Epoch: Sep 15, 2026, 03:09 UTC

1 66500C 25263R   26258.13173611  .00031996  00000+0  11588-2 0  2581
2 66500  43.0037   4.2608 0001639 261.3739  39.5995 15.27566124    16

Volg STARLINK-35894 in realtime met AllMySat

Download on the App Store